Regional Weather Roundup
Issued by NWS Wakefield, VA

Home | Current Version | Previous Version | Text Only | Print | Product List | Glossary On
Versions: 1 2 3 4 5 6 7 8 9 10 11 12 13 14 15 16 17 18 19 20 21 22 23 24 25 26 27 28
000
ASUS41 KAKQ 280015
RWRAKQ

REGIONAL WEATHER ROUNDUP
NATIONAL WEATHER SERVICE WAKEFIELD VA
800 PM EDT TUE SEP 27 2016

Note: "fair" indicates few or no clouds below 12,000 feet with no
significant weather and/or obstructions to visibility. * = Denotes
station may not report precipitation (e.g., rain,snow,etc.),
thunder or fog.

VAZ042-051-052>054-056-280100-
NORTHERN VIRGINIA

CITY           SKY/WX    TMP DP  RH WIND       PRES   REMARKS
WASH NATIONAL  PTCLDY    70  60  70 SE7       29.92R
DULLES         PTCLDY    66  55  67 SE5       29.91R
FORT BELVOIR   CLEAR     62  60  92 SE2       29.92R
QUANTICO       PTCLDY    69  63  81 S8        29.92R
FREDERICKSBRG* CLOUDY    66  65  98 SE5       29.91R
STAFFORD*      PTCLDY    62  61  98 E3        29.95S
WARRENTON      PTCLDY    61  54  77 CALM      29.91S
CULPEPER*      CLEAR     62  61  96 CALM      29.92S
MANASSAS*      CLEAR     64  59  82 S5        29.92
LEESBURG*      CLEAR     70  59  68 S6        29.92S
WINCHESTER     CLEAR     64  55  72 SE6       29.91R
FRONT ROYAL*   FAIR      64  59  82 CALM      29.89R
LURAY*         FAIR      64  63  94 N3        29.91R
$$

VAZ048-049-060>072-079>083-280100-
CENTRAL AND SOUTH CENTRAL VIRGINIA

CITY           SKY/WX    TMP DP  RH WIND       PRES   REMARKS
RICHMOND       CLOUDY    69  67  93 E6        29.90S
CHESTERFIELD*  FAIR      70  55  60 CALM      29.92R
PETERSBURG*    FOG      N/A N/A N/A CALM      29.91R VSB 1/2
HANOVER        CLOUDY    68  66  93 NE3       29.92S
TAPPAHANNOCK*  CLOUDY    68  68 100 CALM      29.92S
QUINTON*       CLOUDY    69  69 100 W6        29.90S FOG
CHARLOTTSVILLE PTCLDY    71  64  78 E7        29.90R
GORDONSVILLE*  FAIR      64  64 100 CALM      29.91
ORANGE*          N/A     64  64 100 CALM      29.93S
LOUISA*        PTCLDY    70  66  88 SE3       29.90S
BUMPASS*       CLOUDY    67  67  98 CALM      29.91S
FARMVILLE*     CLOUDY    72  69  91 CALM      29.89R
CREWE*         FAIR      67  67 100 CALM      29.90R
FORT PICKETT*  FAIR      68  64  88 E3        29.90S
CHASE CITY*    FAIR      70  68  94 SE5       29.89S
CLARKSVILLE*   FAIR      70  70 100 CALM      29.89S
SOUTH HILL*    CLOUDY    69  69 100 CALM      29.96S
LAWRENCEVILLE* FAIR      68  67  97 CALM      29.91S
EMPORIA*       CLEAR     68  68 100 CALM      29.92S FOG
$$

VAZ088>098-280100-
SOUTHEAST VIRGINIA

CITY           SKY/WX    TMP DP  RH WIND       PRES   REMARKS
NORFOLK        CLOUDY    71  69  93 CALM      29.91R
VIRGINIA BEACH CLOUDY    71  69  93 CALM      29.91R
NORFOLK NAVAL  CLOUDY    73  69  87 CALM      29.93R
WEST POINT*    PTCLDY    70  68  95 CALM      29.92S
SALUDA*        FAIR      69  69 100 CALM      29.91S
NEWPORT NEWS   CLOUDY    71  70  96 E5        29.91R
LANGLEY AFB    CLOUDY    73  70  89 SE3       29.90S
FORT EUSTIS    PTCLDY    72  69  91 E3        29.88S
WILLIAMSBURG*  CLEAR     72  70  94 CALM      29.91S
HR EXEC AP*    CLOUDY    72  68  88 CALM      29.94R
FRANKLIN*      CLOUDY    73  70  91 CALM      29.91S
US460-WAKEFLD  PTCLDY    70  68  93 CALM      29.91R
$$

VAZ020-022-025-037-045-280100-
WEST CENTRAL AND SOUTHWEST VIRGINIA

CITY           SKY/WX    TMP DP  RH WIND       PRES   REMARKS
STAUNTON*      CLEAR     65  59  81 S3        29.92S
WAYNESBORO*    FAIR      67  64  88 CALM      29.92R
HOT SPRINGS VA CLEAR     56  33  43 W7        29.99S
LYNCHBURG      PTCLDY    69  66  90 S6        29.91R
DANVILLE       CLOUDY    73  68  84 SE5       29.88S
SOUTH BOSTON*  FAIR      71  70  96 SE5       29.88F
MARTINSVILLE   LGT RAIN  66  65  96 CALM      29.91S
ROANOKE        PTCLDY    73  67  81 E7        29.92R
BLACKSBURG     CLEAR     62  55  79 CALM      29.97S
DUBLIN*        CLEAR     67  59  75 CALM      29.95S
MARION*        CLEAR     64  60  87 CALM      29.98S
HILLSVILLE*    CLOUDY    67  60  76 CALM      29.96S
RICHLANDS*     FAIR      65  47  52 NW3       29.97R
WISE*          CLEAR     63  34  34 CALM      29.98S
ABINGDON*      CLEAR     67  61  81 CALM      29.95S
$$

MDZ021>025-VAZ099-100-280100-
SOUTHERN MARYLAND AND THE DELMARVA PENINSULA

CITY           SKY/WX    TMP DP  RH WIND       PRES   REMARKS
PATUXENT RIVER CLOUDY    70  64  81 CALM      29.92S
BAY BRIDGE APT CLEAR     64  63  94 MISG      29.93R
LEONARDTOWN    CLOUDY    66  63  88 CALM      29.94S
DOVER          CLEAR     63  63  98 SE3       29.92S
GEORGETOWN     CLOUDY    66  64  93 SE3       29.94S
EASTON         PTCLDY    64  61  88 CALM      29.97R
CAMBRIDGE      CLEAR     63  63 100 CALM      29.93R
SALISBURY      CLOUDY    68  67  96 N6        29.93R FOG
OCEAN CITY     CLOUDY    70  66  87 NE3       29.92S
WALLOPS ISLAND RAIN      72  71  97 CALM      29.93R FOG
ACCOMACK*      CLOUDY    71  68  92 CALM      29.93R FOG
$$

NCZ012>017-030>032-280100-
NORTH CENTRAL AND EASTERN NORTH CAROLINA

CITY           SKY/WX    TMP DP  RH WIND       PRES   REMARKS
ROANOKE RAPIDS FAIR      70  68  94 CALM      29.90S
RALEIGH        MOCLDY    74  69  85 SE7       29.90R
ELIZABETH CITY PTCLDY    73  68  84 SE5       29.92R
AHOSKIE*       CLEAR     70  70  98 CALM      29.91S
EDENTON*       HVY RAIN  76  68  78 CALM      29.93R
CURRITUCK*     CLOUDY    72  72 100 CALM      29.92R
KILL DEVIL HLS PTCLDY    73  70  89 SE3       29.90R
MANTEO         PTCLDY    72  69  89 SE5       29.91R
CAPE HATTERAS  CLOUDY    73  68  84 NE5       29.89S
TARBORO*       FOG       71  71  97 CALM      29.91S VSB 1/2
GOLDSBORO      CLOUDY    73  73 100 VRB3      29.89R
WASHINGTON     CLOUDY    73  70  92 CALM      29.91R
GREENVILLE     MOCLDY    72  72 100 CALM      29.93R
NEW BERN       MOCLDY    74  70  87 CALM      29.92R
WILMINGTON     CLOUDY    73  70  90 CALM      29.91R
$$

VAZ048-280100-
ELSEWHERE

CITY           SKY/WX    TMP DP  RH WIND       PRES   REMARKS
HARRISBURG PA  CLEAR     62  57  83 SE3       29.90R
BALTIMORE      PTCLDY    66  58  75 SE5       29.92R
ANNAPOLIS      CLEAR     68  59  73 S6        29.92R
ANDREWS AFB    CLEAR     62  58  86 SE5       29.92R
PHILADELPHIA   CLEAR     69  57  65 S7        29.93R
HENDERSON NC   CLEAR     69  66  92 CALM      29.90S
GREENSBORO     CLOUDY    74  70  87 SE6       29.89R
ROCKY MOUNT    FOG       70  70 100 CALM      29.90R VSB 1
$$

VAZ100-280100-
MARINE

STATION/POSITION TIME  TEMP    WIND        PRES    WAVE   SWELL
                       AIR SEA DIR/SP/G            HT/PER HT/PER
                 (UTC) (F)     (DEG/KT/KT) (MB)    (FT/S) (FT/S)
BRANDYWINE LGT   2342          190/  5/  5   N/A
CAPE MAY NJ      2348      72  120/  2/  3 1013.1S
LEWES DE         2348      72  140/  2/  2 1013.4R
OCEAN-CITY-INLET 2348      73   70/  5/  6 1013.5F
WACHAPREAGUE VA  2348      74  260/  1/  2 1013.2R
THOMAS POINT MD  0000   70 74  160/  8/ 10 1014.6R
GOOSES REEF MD   2350   71     170/  4/  6 1013.9R
COVE POINT MD    2342          180/  7/  9 1013.7S
SOLOMONS ISLAND  2342      75  120/  5/  8   N/A
BISHOPS HEAD MD  2348      71   70/  4/  5 1013.4R
PINEY POINT MD   2342          140/  7/  7   N/A
POTOMAC MD       2350   70     110/  4/  4 1012.1S
CAMBRIDGE MD     2348      74  180/  1/  3 1012.5R
LEWISETTA VA     2348      73  100/  4/  4 1012.5F
RAPPAHANNOCK LGT 2342          160/  6/  7 1013.6R
STINGRAY PT      2350   73      90/  4/  6 1013.2S
YORK RVR RNG VA  2342          140/  4/  5 1012.4R
YORKTOWN VA      2348      76  110/  4/  4 1012.3R
JAMESTOWN VA     2350   71      80/  4/  4   N/A
DOMINION TERM VA 2342          160/  4/  5 1012.8R
KIPTOPEKE VA     2348      76  210/  2/  4   N/A
CHES BAY BRIDGE  2348      76  170/  3/  5 1012.8R
CAPE HENRY VA    2342          180/  3/  5   N/A
WILLOUBY STN VA  2342           10/  2/  2   N/A
CAPE HENRY BUOY  2342      75                N/A     3/13   2/13
1ST LANDING BUOY 2350   73     210/  4/  4 1012.8R
CAPE CHARLES BUO 2326      76                N/A     2/13   2/13
OFFSHORE WE BUOY 2351      75                N/A     3/11   2/11
64NM E OF VA BCH 2350   74 74  140/  8/ 10 1012.6R   3/12   3/12
DUCK PIER NC     2348      76  140/ 10/ 13 1012.2R
44056 DUCK FRF   2341      76                N/A     3/13   2/13
OREGON INLET NC  2348      77  100/  7/ 11 1012.3R
HATTERAS NC      2348      77   70/  5/  9 1011.8R
DIAMOND SHLS NC  2350   78 84   70/ 10/ 12 1011.5R   5/ 7   5/ 7
CAPE LOOKOUT NC  0000   77      60/  8/  9 1012.0R
$$




USA.gov is the U.S. government's official web portal to all federal, state and local government web resources and services.